Home   Weather   Cheltenham   Past weeks

Flag for United Kingdom Past Weather in Cheltenham, England, United Kingdom — Yesterday and Last 2 Weeks

Now
34 °F

Chilly.


Feels Like: 26 °F
Forecast: N/A
Wind: 10 mph from East

Location: Little Rissington

Current Time: Jan 19, 2017 at 11:36:36 pm

Latest Report: Jan 19, 2017 at 10:00 pm


Visibility: 3 mi

Pressure: 30.60 "Hg

Humidity: 98%

Dew Point: 34 °F

Location of CheltenhamLocation

Past Weather in Cheltenham — Graph

°F

Cheltenham Temperature Yesterday

Maximum temperature yesterday: 39 °F (at 2:00 pm)
Minimum temperature yesterday: 33 °F (at 10:00 pm)
Average temperature yesterday: 36 °F

High & Low Weather Summary for the Past Weeks

 TemperatureHumidityPressure
High49 °F (Jan 11, 6:00 am)100% (Jan 6, 7:00 pm)30.68 "Hg (Jan 6, 7:00 pm)
Low27 °F (Jan 5, 8:00 am)60% (Jan 11, 3:00 pm)29.41 "Hg (Jan 12, 4:00 pm)
Average39 °F93%30.25 "Hg
* Reported Jan 4 10:00 pm — Jan 19 10:00 pm, Cheltenham, Weather by CustomWeather, © 2017

Note: Actual official high and low records may vary slightly from our data, if they occured in-between our weather recording intervals... More about our weather records

Advertising

Cheltenham Weather History for the Previous 24 Hours

Scroll right to see more
 ConditionsComfort  
Time TempWeatherWind HumidityBarometerVisibility
10:00 pm
Thu, Jan 19
34 °FChilly.10 mph98%30.60 "Hg3 mi
9:00 pm35 °FChilly.9 mph98%30.60 "Hg2 mi
8:00 pm34 °FChilly.8 mph97%30.61 "Hg2 mi
7:00 pm36 °FChilly.8 mph94%30.60 "Hg5 mi
6:00 pm38 °FChilly.8 mph92%30.60 "Hg9 mi
5:00 pm38 °FChilly.8 mph92%30.60 "Hg9 mi
4:00 pm41 °FQuite cool.7 mph87%30.59 "Hg16 mi
3:00 pm42 °FQuite cool.8 mph87%30.60 "Hg15 mi
2:00 pm42 °FQuite cool.9 mph89%30.60 "Hg12 mi
1:00 pm41 °FQuite cool.10 mph99%30.62 "Hg11 mi
12:00 pm39 °FChilly.6 mph100%30.64 "Hg6 mi
11:00 am37 °FChilly.5 mph100%30.65 "Hg3 mi
10:00 am36 °FChilly.6 mph100%30.66 "Hg6 mi
9:00 am33 °FChilly.5 mph100%30.66 "Hg0 mi
8:00 am33 °FChilly.3 mph99%30.66 "Hg0 mi
7:00 am30 °FChilly.2 mph99%30.64 "Hg0 mi
6:00 am31 °FChilly.5 mph100%30.63 "Hg0 mi
5:00 am31 °FChilly.6 mph100%30.64 "Hg0 mi
4:00 am31 °FChilly.8 mph100%30.65 "Hg0 mi
3:00 am33 °FChilly.7 mph100%30.65 "Hg0 mi
2:00 am32 °FChilly.6 mph99%30.65 "Hg0 mi
1:00 am34 °FChilly.6 mph99%30.66 "Hg0 mi
12:00 am33 °FChilly.5 mph100%30.66 "Hg0 mi
11:00 pm
Wed, Jan 18
33 °FChilly.5 mph99%30.66 "Hg0 mi
Weather by CustomWeather, © 2017

See weather overviewHow to use our weather pages